Weather History for Washington, MO

Change the Weather History Date:

Saturday, November 10, 2012

  Actual Average (KSTL) Record (KSTL)
Temperature  
Mean Temperature 68 °F 50 °F  
Max Temperature 80 °F 59 °F 81 °F (2012)
Min Temperature 57 °F 41 °F 18 °F (1973)
Degree Days  
Heating Degree Days 0 16  
Month to date heating degree days 138  
Since 1 July heating degree days 414  
Cooling Degree Days 4 0  
Month to date cooling degree days 0  
Year to date cooling degree days 1642  
Growing Degree Days 18 (Base 50)    
Moisture  
Dew Point 47 °F    
Average Humidity 50    
Maximum Humidity 67    
Minimum Humidity 23    
Precipitation  
Precipitation 0.00 in 0.13 in 0.97 in (1974)
Month to date precipitation 1.22  
Year to date precipitation 35.43  
Snow  
Snow - 0.00 in T in (1984)
Month to date snowfall 0.1  
Since 1 July snowfall 0.1  
Since 1 September snowfall 0.1  
Snow Depth -    
Sea Level Pressure  
Sea Level Pressure 29.94 in    
Wind  
Wind Speed 10 mph ()    
Max Wind Speed 21 mph    
Max Gust Speed 36 mph    
Visibility 10.0 miles    
Events      
T = Trace of Precipitation, MM = Missing Value Source: Averaged Metar Reports

Daily Weather History Graph

Daily Weather History Graph

Search for Another Location

Airport:

Trip Planner

Search our weather history database for the weather conditions in past years. The results will help you decide how hot, cold, wet, or windy it might be!

Date:

Astronomy

Nov. 10, 2012 Rise Set
Actual Time 6:41 AM CST 4:54 PM CST
Civil Twilight 6:12 AM CST 5:22 PM CST
Nautical Twilight 5:41 AM CST 5:54 PM CST
Astronomical Twilight 5:09 AM CST 6:25 PM CST
Moon 2:48 AM CST (11/10) 2:39 PM CST (11/10)
Length of Visible Light 11h 09m
Length of Day
10h 13m
Waning Crescent, 14% of the Moon is Illuminated
Nov 10
Waning Crescent
Nov 13
New
Nov 20
First Quarter
Nov 28
Full
Dec 6
Last Quarter

Hourly Weather History & Observations

Time (CST) Temp. Dew Point Humidity Pressure Visibility Wind Dir Wind Speed Gust Speed Precip Events Conditions
12:15 AM 59.0 °F 48.2 °F 67% 29.97 in 10.0 mi South 9.2 mph - N/A   Clear
12:35 AM 59.0 °F 48.2 °F 67% 29.97 in 10.0 mi South 8.1 mph - N/A   Partly Cloudy
12:55 AM 59.0 °F 48.2 °F 67% 29.97 in 10.0 mi South 8.1 mph - N/A   Partly Cloudy
1:15 AM 59.0 °F 48.2 °F 67% 29.96 in 10.0 mi SSE 8.1 mph - N/A   Partly Cloudy
1:35 AM 59.0 °F 46.4 °F 63% 29.96 in 10.0 mi SSE 6.9 mph - N/A   Clear
1:55 AM 59.0 °F 46.4 °F 63% 29.96 in 10.0 mi SSE 8.1 mph - N/A   Clear
2:15 AM 59.0 °F 46.4 °F 63% 29.96 in 10.0 mi South 10.4 mph - N/A   Scattered Clouds
2:35 AM 59.0 °F 46.4 °F 63% 29.96 in 10.0 mi South 11.5 mph - N/A   Partly Cloudy
2:55 AM 59.0 °F 46.4 °F 63% 29.96 in 10.0 mi South 9.2 mph - N/A   Partly Cloudy
3:15 AM 59.0 °F 46.4 °F 63% 29.96 in 10.0 mi South 9.2 mph - N/A   Partly Cloudy
3:35 AM 59.0 °F 46.4 °F 63% 29.96 in 10.0 mi South 9.2 mph - N/A   Clear
3:55 AM 59.0 °F 46.4 °F 63% 29.96 in 10.0 mi SSE 8.1 mph - N/A   Partly Cloudy
4:15 AM 59.0 °F 46.4 °F 63% 29.97 in 10.0 mi South 8.1 mph - N/A   Scattered Clouds
4:35 AM 59.0 °F 46.4 °F 63% 29.96 in 10.0 mi SSE 8.1 mph - N/A   Scattered Clouds
4:55 AM 59.0 °F 44.6 °F 59% 29.97 in 10.0 mi SE 5.8 mph - N/A   Partly Cloudy
5:15 AM 59.0 °F 46.4 °F 63% 29.96 in 10.0 mi SE 6.9 mph - N/A   Scattered Clouds
5:35 AM 59.0 °F 44.6 °F 59% 29.96 in 10.0 mi SE 8.1 mph - N/A   Scattered Clouds
5:55 AM 59.0 °F 44.6 °F 59% 29.97 in 10.0 mi SE 8.1 mph - N/A   Partly Cloudy
6:15 AM 59.0 °F 44.6 °F 59% 29.97 in 10.0 mi SE 8.1 mph - N/A   Clear
6:35 AM 59.0 °F 44.6 °F 59% 29.97 in 10.0 mi SE 8.1 mph - N/A   Clear
6:55 AM 57.2 °F 46.4 °F 67% 29.97 in 10.0 mi SE 8.1 mph - N/A   Clear
7:15 AM 59.0 °F 46.4 °F 63% 29.98 in 10.0 mi SE 8.1 mph - N/A   Clear
7:35 AM 59.0 °F 46.4 °F 63% 29.98 in 10.0 mi SE 9.2 mph - N/A   Clear
7:55 AM 59.0 °F 48.2 °F 67% 29.98 in 10.0 mi SSE 9.2 mph - N/A   Clear
8:15 AM 62.6 °F 48.2 °F 59% 29.99 in 10.0 mi SSE 11.5 mph - N/A   Clear
8:35 AM 62.6 °F 50.0 °F 63% 29.98 in 10.0 mi SSE 9.2 mph - N/A   Clear
8:55 AM 62.6 °F 50.0 °F 63% 29.98 in 10.0 mi South 10.4 mph - N/A   Clear
9:35 AM 68.0 °F 50.0 °F 52% 29.97 in 10.0 mi SSW 12.7 mph - N/A   Clear
9:55 AM 69.8 °F 50.0 °F 49% 29.97 in 10.0 mi SSW 12.7 mph - N/A   Clear
10:15 AM 71.6 °F 50.0 °F 46% 29.97 in 10.0 mi SSW 17.3 mph 21.9 mph N/A   Clear
10:35 AM 73.4 °F 50.0 °F 44% 29.96 in 10.0 mi SSW 15.0 mph - N/A   Clear
10:55 AM 73.4 °F 50.0 °F 44% 29.96 in 10.0 mi South 13.8 mph - N/A   Clear
11:15 AM 75.2 °F 50.0 °F 41% 29.94 in 10.0 mi SSW 13.8 mph 24.2 mph N/A   Clear
11:35 AM 75.2 °F 50.0 °F 41% 29.93 in 10.0 mi South 15.0 mph - N/A   Clear
11:55 AM 75.2 °F 50.0 °F 41% 29.92 in 10.0 mi SSW 13.8 mph 19.6 mph N/A   Clear
12:15 PM 77.0 °F 50.0 °F 39% 29.91 in 10.0 mi SSW 12.7 mph 21.9 mph N/A   Clear
12:35 PM 77.0 °F 46.4 °F 34% 29.91 in 10.0 mi SSW 15.0 mph 25.3 mph N/A   Clear
12:55 PM 78.8 °F 44.6 °F 30% 29.90 in 10.0 mi SW 20.7 mph 24.2 mph N/A   Clear
1:15 PM 80.6 °F 44.6 °F 28% 29.90 in 10.0 mi SSW 18.4 mph 25.3 mph N/A   Clear
1:35 PM 78.8 °F 41.0 °F 26% 29.90 in 10.0 mi SW 18.4 mph 31.1 mph N/A   Clear
1:55 PM 80.6 °F 41.0 °F 24% 29.89 in 10.0 mi SSW 17.3 mph - N/A   Clear
2:15 PM 80.6 °F 39.2 °F 23% 29.88 in 10.0 mi South 20.7 mph 28.8 mph N/A   Clear
2:35 PM 80.6 °F 39.2 °F 23% 29.88 in 10.0 mi SSW 16.1 mph 21.9 mph N/A   Clear
2:55 PM 80.6 °F 39.2 °F 23% 29.88 in 10.0 mi SSW 16.1 mph 26.5 mph N/A   Clear
3:15 PM 80.6 °F 39.2 °F 23% 29.88 in 10.0 mi South 17.3 mph 25.3 mph N/A   Clear
3:35 PM 78.8 °F 39.2 °F 24% 29.88 in 10.0 mi South 16.1 mph 35.7 mph N/A   Clear
3:55 PM 77.0 °F 41.0 °F 28% 29.88 in 10.0 mi SSE 12.7 mph 23.0 mph N/A   Clear
4:15 PM 75.2 °F 41.0 °F 29% 29.88 in 10.0 mi South 11.5 mph 19.6 mph N/A   Clear
4:55 PM 73.4 °F 42.8 °F 33% 29.89 in 10.0 mi South 13.8 mph - N/A   Clear
5:15 PM 73.4 °F 41.0 °F 31% 29.90 in 10.0 mi SSE 13.8 mph 24.2 mph N/A   Clear
5:35 PM 71.6 °F 44.6 °F 38% 29.91 in 10.0 mi SE 11.5 mph 16.1 mph N/A   Clear
5:55 PM 71.6 °F 44.6 °F 38% 29.91 in 10.0 mi SSE 15.0 mph 23.0 mph N/A   Clear
6:15 PM 69.8 °F 46.4 °F 43% 29.92 in 10.0 mi SSE 15.0 mph - N/A   Clear
6:35 PM 68.0 °F 46.4 °F 46% 29.93 in 10.0 mi SSE 10.4 mph - N/A   Clear
6:55 PM 68.0 °F 46.4 °F 46% 29.93 in 10.0 mi SSE 12.7 mph 18.4 mph N/A   Clear
7:15 PM 66.2 °F 46.4 °F 49% 29.93 in 10.0 mi SSE 15.0 mph 21.9 mph N/A   Clear
7:35 PM 66.2 °F 48.2 °F 52% 29.92 in 10.0 mi SSE 16.1 mph - N/A   Clear
7:55 PM 64.4 °F 50.0 °F 59% 29.93 in 10.0 mi SSE 11.5 mph 16.1 mph N/A   Clear
8:15 PM 64.4 °F 50.0 °F 59% 29.93 in 10.0 mi SSE 9.2 mph - N/A   Clear
8:35 PM 64.4 °F 50.0 °F 59% 29.93 in 10.0 mi SSE 12.7 mph 17.3 mph N/A   Clear
8:55 PM 64.4 °F 50.0 °F 59% 29.92 in 10.0 mi SSE 13.8 mph - N/A   Clear
9:35 PM 64.4 °F 50.0 °F 59% 29.93 in 10.0 mi SSE 12.7 mph 21.9 mph N/A   Clear
10:15 PM 66.2 °F 50.0 °F 56% 29.92 in 10.0 mi South 16.1 mph 27.6 mph N/A   Clear
10:35 PM 66.2 °F 50.0 °F 56% 29.92 in 10.0 mi South 16.1 mph 23.0 mph N/A   Clear
10:55 PM 66.2 °F 50.0 °F 56% 29.91 in 10.0 mi South 17.3 mph 24.2 mph N/A   Partly Cloudy
11:15 PM 66.2 °F 51.8 °F 60% 29.91 in 10.0 mi South 15.0 mph 18.4 mph N/A   Partly Cloudy
11:35 PM 66.2 °F 51.8 °F 60% 29.91 in 10.0 mi South 17.3 mph 21.9 mph N/A   Partly Cloudy
11:55 PM 66.2 °F 51.8 °F 60% 29.91 in 10.0 mi South 16.1 mph 25.3 mph N/A   Partly Cloudy